Regional Weather Roundup
Issued by NWS State College, PA

Home | Current Version | Previous Version | Text Only | Print | Product List | Glossary Off
Versions: 1 2 3 4 5 6 7 8 9 10 11 12 13 14 15 16 17 18 19 20 21 22 23 24 25 26 27 28 29 30 31 32 33 34 35 36 37 38 39 40 41 42 43 44 45 46 47 48 49 50

000
ASUS41 KCTP 191503
RWRCTP

REGIONAL WEATHER ROUNDUP
NATIONAL WEATHER SERVICE STATE COLLEGE PA
1100 AM EDT FRI SEP 19 2014

Note: "fair" indicates few or no clouds below 12,000 feet with no
significant weather and/or obstructions to visibility.

* = STATION THAT DOES NOT REPORT PRECIPITATION /E.G. RAIN...SNOW...ETC/
    THUNDER OR FOG.

PAZ002>004-007>009-013>016-020>023-029>032-191600-
WESTERN PENNSYLVANIA

CITY           SKY/WX    TMP DP  RH WIND       PRES   REMARKS
ERIE           SUNNY     58  46  64 S8        30.29R
MEADVILLE      SUNNY     53  46  77 E7        30.28S
FRANKLIN*      SUNNY     55  46  71 NE8       30.28F
NEW CASTLE     NOT AVBL
BEAVER COUNTY  SUNNY     61  50  67 E3        30.25S
BUTLER*        SUNNY     59  50  72 NE9       30.27S
PITTSBURGH INT MOSUNNY   61  50  67 E7        30.23S
PITTSBURGH     SUNNY     62  49  62 VRB5      30.23S
INDIANA*       SUNNY     61  50  67 SE7       30.29F
LATROBE        SUNNY     63  52  67 E9        30.25S
WASHINGTON CO* SUNNY     63  52  67 E6        30.23S
$$

PAZ004>006-010>012-017>019-024>028-033>037-041-042-045-046-049>053-191600-
CENTRAL PENNSYLVANIA

CITY           SKY/WX    TMP DP  RH WIND       PRES   REMARKS
BRADFORD       MOSUNNY   50  42  74 SE5       30.30S
DUBOIS         SUNNY     54  47  77 SE8       30.28S
CLEARFIELD     SUNNY     55  47  74 VRB5      30.30S
JOHNSTOWN      SUNNY     59  47  64 SE7       30.26S
ALTOONA        SUNNY     58  49  72 VRB3      30.29S
STATE COLLEGE  MOSUNNY   54  48  82 NE5       30.31R
WILLIAMSPORT   SUNNY     58  41  53 VRB6      30.32S
SELINSGROVE    SUNNY     60  46  59 VRB5      30.32S
FT INDIANTOWN  NOT AVBL
CAPITAL CITY   SUNNY     62  47  57 E8        30.30S
HARRISBURG     PTSUNNY   63  47  55 NE6       30.29F
YORK           SUNNY     64  50  60 E10       30.29S
$$

PAZ038>040-043-044-047-048-054-055-060>062-067>071-191600-
EASTERN PENNSYLVANIA

CITY           SKY/WX    TMP DP  RH WIND       PRES   REMARKS
SCRANTON       PTSUNNY   55  43  63 VRB3      30.33S
MOUNT POCONO   PTSUNNY   52  45  77 SE8       30.32S
ALLENTOWN      SUNNY     60  44  55 NE10      30.33S
QUAKERTOWN*    SUNNY     59  48  67 NE5       30.33R
READING        SUNNY     63  49  60 NE6       30.30S
LANCASTER      SUNNY     63  48  58 E9        30.30S
COATESVILLE    SUNNY     61  52  72 E14G26    30.30S
POTTSTOWN      MOSUNNY   61  49  64 E6        30.32S
BLUE BELL      PTSUNNY   63  52  67 NE8       30.31R
DOYLESTOWN     MOSUNNY   58  48  69 NE8       30.32R
WILLOW GROVE   NOT AVBL
NORTH PHILA    CLOUDY    63  48  58 NE15      30.33R
PHILADELPHIA   CLOUDY    64  52  64 E13       30.31R
$$


USA.gov is the U.S. government's official web portal to all federal, state and local government web resources and services.